Location: Maisnil
(50.6246°N, 2.1648°E)
Time: 07:34:53
(UTC+00:00)

Daily predictions for brighter satellites

Satellite Brightness Start Highest point End
(mag) Time Altitude Azimuth Time Altitude Azimuth Time Altitude Azimuth
USA 307 3.0 17:00:44 10° WNW 17:05:02 72° NNE 17:09:19 10° ESE
H-2A R/B 1.9 17:01:15 10° NNE 17:05:27 83° ESE 17:09:33 10° SSW
COSMO-SKYMED 1 3.8 17:03:40 10° NE 17:06:59 21° E 17:10:17 10° SE
Landsat 5 3.6 17:04:47 10° NNE 17:08:41 76° WNW 17:12:39 10° SSW
Envisat 3.5 17:04:38 10° S 17:09:40 66° WSW 17:14:46 10° NNW
USA 308 2.9 17:05:43 10° WNW 17:10:01 75° NNE 17:14:19 10° ESE
Cosmos 1486 Rocket 4.3 17:05:56 10° NNW 17:11:07 47° ENE 17:16:14 10° SE
Cosmos 1300 2.9 17:07:40 10° SSE 17:11:20 46° E 17:15:01 10° NNE
CZ-4B R/B 1.9 17:09:56 10° NNE 17:12:55 34° E 17:15:49 10° SSE
Cosmos 1400 Rocket 3.6 17:09:22 10° SSE 17:13:01 32° E 17:16:39 10° NNE
Cosmos 1825 Rocket 3.7 17:08:55 10° NNW 17:13:24 84° W 17:17:48 10° S
Cosmos 1825 3.9 17:12:08 10° NNE 17:14:13 14° ENE 17:16:17 10° E
Cosmos 1697 Rocket 4.0 17:10:40 10° SE 17:14:29 19° E 17:18:19 10° ENE
ERS-2 2.4 17:13:13 10° NNE 17:16:46 45° E 17:20:16 10° S
Helios 1A Rocket 3.8 17:16:32 10° SE 17:20:06 29° ENE 17:23:40 10° N
Meteor 2-21 Rocket 4.5 17:14:48 10° N 17:21:01 87° ENE 17:27:09 10° S
BREEZE-M TANK 4.0 17:10:13 10° W 17:21:06 53° S 17:24:48 10° ESE
YAOGAN 1 3.6 17:19:04 10° ESE 17:22:32 24° ENE 17:26:02 10° N
Cosmos 1340 2.7 17:21:59 10° N 17:25:43 55° ENE 17:29:25 10° SSE
NOAA 11 4.1 17:21:58 10° SSE 17:27:24 76° ENE 17:32:50 10° NNW
Cosmos 44 3.2 17:23:20 10° SSW 17:27:52 79° SE 17:32:43 10° NE
CZ-2D R/B 3.9 17:24:36 10° SE 17:28:03 33° ENE 17:31:30 10° N
Okean O Rocket 2.2 17:24:58 10° S 17:29:17 61° WSW 17:33:37 10° NNW
Cosmos 2228 3.1 17:25:24 10° S 17:29:40 85° WNW 17:33:59 10° N
Cosmos 1726 Rocket 3.5 17:26:10 10° S 17:30:30 75° E 17:34:56 10° NNE
CZ-4 R/B 2.1 17:27:34 10° SE 17:30:54 28° ENE 17:34:14 10° N
Cosmos 1346 Rocket 3.4 17:29:45 10° N 17:33:28 35° ENE 17:37:09 10° SE
SL-4 R/B 1.6 17:30:04 10° W 17:33:36 80° N 17:36:33 16° E
Cosmos 1354 Rocket 4.5 17:29:10 10° NNW 17:34:05 39° NE 17:39:01 10° SE
Cosmos 2058 3.5 17:30:30 10° N 17:34:16 34° ENE 17:38:01 10° SE
Aureole 3 2.8 17:33:16 10° S 17:36:11 45° E 17:39:05 10° NNE
Cosmos 2369 Rocket 4.3 17:32:56 10° W 17:37:13 21° NW 17:41:31 10° NNE
Cosmos 2297 Rocket 2.3 17:31:31 10° NNW 17:37:14 83° WSW 17:42:54 10° SSE
Cosmos 1980 Rocket 3.6 17:34:58 10° SE 17:38:13 16° E 17:39:22 15° E
In-Cosmos 22 Rocket 4.1 17:33:39 10° N 17:39:01 71° ENE 17:44:29 10° SSE
CZ-2C R/B 3.6 17:39:18 10° SE 17:44:42 43° ENE 17:49:55 10° N
Cosmos 1315 Rocket 3.7 17:43:31 10° SSE 17:46:51 26° E 17:50:14 10° NE
Cosmos 1606 Rocket 4.1 17:42:40 10° SSW 17:47:01 61° WNW 17:51:25 10° N
Cosmos 1553 Rocket 4.0 17:44:41 10° S 17:50:53 60° E 17:57:02 10° NNE
BREEZE-M R/B 3.4 17:50:18 10° W 17:53:54 79° S 17:59:00 18° ESE
Ariane Rocket 4.5 17:53:41 17° ENE 17:54:09 17° NE 17:57:23 10° NNE
USA 305 3.1 17:50:32 10° WNW 17:54:50 72° SSW 17:58:11 16° SE
SKYMED 2 3.6 17:51:04 10° NNE 17:55:23 58° E 17:59:40 10° S
Meteor 2-10 Rocket 3.7 17:51:40 10° SSE 17:56:40 45° E 18:01:30 10° NNE
Cosmos 1455 2.8 17:55:14 10° SSE 17:58:40 34° E 18:02:09 10° NNE
Cosmos 292 Rocket 4.3 17:54:31 10° SW 17:59:16 60° WNW 18:04:05 10° NNE
NOSS 3-4 (A) 4.0 17:53:51 10° NW 18:00:26 52° NE 18:05:39 19° ESE
NOSS 3-4 (C) 4.0 17:53:58 10° NW 18:00:32 52° NE 18:05:43 20° ESE
USA 306 3.2 17:57:04 10° WNW 18:01:20 67° SSW 18:04:25 18° SE
SeaSat 1 3.3 18:00:38 23° E 18:02:45 32° NE 18:07:06 10° NNW
H-2A R/B 2.4 18:00:00 10° SE 18:05:08 45° ENE 18:10:19 10° N
Okean-O 2.5 18:02:02 10° SSE 18:06:26 73° ENE 18:10:53 10° N
FALCON 9 DEB 2.9 18:03:40 10° WSW 18:06:55 86° NNW 18:07:57 40° ENE
MOS 1 Rocket 4.0 18:03:32 10° NNE 18:07:46 31° E 18:12:11 10° SSE
SL-08 R/B 4.5 18:02:00 10° N 18:08:12 85° W 18:14:19 10° S
FALCON 9 DEB 2.9 18:05:38 10° WSW 18:08:51 82° NNW 18:09:47 42° ENE
Cosmos 2219 4.3 18:05:11 10° NW 18:10:41 47° WSW 18:16:09 10° S
Cosmos 2278 4.5 18:06:33 10° SSE 18:11:22 29° ESE 18:12:46 26° E
NOSS 3-3 (A) 4.1 18:06:19 10° SSW 18:11:54 49° ESE 18:16:10 20° ENE
NOSS 3-3 (C) 4.2 18:06:26 10° SSW 18:12:02 48° ESE 18:16:14 20° ENE
Aureole 3 Rocket 3.7 18:07:58 10° SSW 18:12:17 75° WNW 18:18:26 10° N
USA 215 3.6 18:10:10 22° ENE 18:14:17 54° N 18:20:37 10° WNW
ATLAS 5 CENTAUR R/B 3.7 18:11:07 10° NW 18:14:35 20° N 18:17:34 13° NE
Cosmos 1745 Rocket 3.9 18:08:22 10° N 18:14:42 81° E 18:21:04 10° SSE
Cosmos 1408 2.5 18:14:17 10° N 18:17:58 90° NE 18:21:39 10° S
Lacrosse 5 2.5 18:13:16 10° WNW 18:18:06 43° N 18:20:12 28° ENE
Cosmos 2082 3.7 18:12:20 10° NNW 18:18:06 85° WSW 18:23:51 10° SSE
Meteor 2-3 Rocket 4.5 18:13:25 10° N 18:18:30 31° ENE 18:19:36 29° E
Cosmos 44 Rocket 3.9 18:15:15 10° S 18:19:31 33° ESE 18:19:58 32° ESE
GEOS 3 Rocket 3.7 18:17:20 26° ESE 18:20:21 62° NE 18:25:42 10° NW
ARGOS 3.4 18:17:21 19° SE 18:21:00 46° ENE 18:26:10 10° N
HJ-1C 4.3 18:23:12 33° NNE 18:23:12 33° NNE 18:25:27 10° N
ATLAS 2AS CENTAUR R/B 3.0 18:15:01 10° NW 18:22:33 55° NE 18:26:17 29° E
Cosmos 968 Rocket 4.2 18:18:14 10° NNW 18:23:20 54° WSW 18:28:21 10° S
Cosmos 1386 Rocket 4.5 18:17:02 10° N 18:23:30 87° E 18:29:50 10° S
ERBS 3.4 18:20:30 10° NW 18:23:32 31° NNE 18:23:42 31° NNE
FALCON 9 DEB 2.9 18:20:21 10° WSW 18:23:36 74° NNW 18:24:00 62° NE
Cosmos 1689 Rocket 2.4 18:21:51 14° N 18:24:11 63° WNW 18:27:02 10° SSW
Cosmos 1656 3.7 18:18:43 10° SSW 18:24:19 82° WNW 18:30:02 10° NNE
Cosmos 2058 Rocket 4.0 18:20:40 10° SSW 18:25:03 51° WNW 18:29:29 10° N
SL-08 RB Rocket 4.5 18:26:12 32° NE 18:26:12 32° NE 18:29:46 10° N
Cosmos 1844 Rocket 4.3 18:27:29 10° N 18:31:15 18° NNE 18:31:40 18° NE
Cosmos 1076 Rocket 3.4 18:28:04 10° N 18:32:20 87° W 18:36:36 10° S
FALCON 9 DEB 3.0 18:29:19 10° WNW 18:32:45 75° SSW 18:32:58 70° SSE
FALCON 9 DEB 3.0 18:29:55 10° W 18:33:07 67° NNW 18:33:07 67° NNW
Cosmos 1892 4.1 18:30:53 10° NNW 18:34:33 40° W 18:38:11 10° SSW
SJ 16-02 3.4 18:32:21 10° N 18:33:44 15° NNE 18:33:44 15° NNE
Cosmos 2369 3.7 18:29:58 10° SSW 18:35:36 63° ESE 18:39:11 23° NE
Cosmos 1777 Rocket 4.1 18:32:25 10° NNW 18:37:32 52° ENE 18:38:35 45° E
Cosmos 2227 Rocket 3.8 18:36:25 10° NW 18:41:31 35° WSW 18:46:35 10° S
CSL-04 Rocket 3.6 18:36:48 10° SSE 18:42:21 84° ENE 18:47:52 10° NNW
COSMO-SKYMED 1 3.5 18:39:12 10° N 18:43:26 50° WNW 18:47:37 10° SW
Cosmos 2263 Rocket 2.4 18:38:28 10° NNW 18:44:03 52° NE 18:45:08 46° E
Cosmos 1709 Rocket 3.9 18:37:49 10° N 18:44:14 78° E 18:50:37 10° SSE
CZ-4B R/B 4.2 18:42:46 10° NNW 18:44:56 17° WNW 18:47:05 10° WSW
USA 307 4.0 18:40:57 10° WNW 18:44:56 38° SW 18:46:28 28° S
CZ-4C R/B 3.2 18:40:50 10° NW 18:47:18 47° NNE 18:49:38 37° ENE
USA 308 4.1 18:45:57 10° WNW 18:49:53 36° SW 18:51:16 28° S
Cosmos 1825 2.6 18:46:23 10° NNW 18:50:08 60° W 18:52:23 22° S
Cosmos 1697 Rocket 2.7 18:52:08 10° SSW 18:57:45 82° WNW 19:01:26 23° NNE
YAOGAN 1 3.6 18:54:16 10° S 18:58:25 45° W 19:02:36 10° NNW
Cosmos 2074 Rocket 4.3 18:52:43 10° N 18:58:06 43° ENE 18:58:06 43° ENE
Cosmos 883 Rocket 4.3 18:54:37 10° S 19:00:47 86° E 19:06:56 10° N
Cosmos 1812 Rocket 3.9 19:01:16 10° SSW 19:05:38 63° WNW 19:09:59 10° N
CZ-4 R/B 3.2 19:02:29 10° SSW 19:05:54 29° W 19:09:19 10° NNW
Cosmos 2315 Rocket 3.8 19:05:23 10° S 19:11:36 85° E 19:17:50 10° N
SL-4 R/B 3.2 19:09:35 10° W 19:12:08 36° WSW 19:12:08 36° WSW
Cosmos 2151 3.5 19:10:32 10° NNW 19:14:07 56° NW 19:14:07 56° NW
DMSP B5D2-7 4.5 19:15:02 79° E 19:15:09 79° ENE 19:20:37 10° NNW
Cosmos 1980 Rocket 2.0 19:15:44 10° SSW 19:21:13 84° SSE 19:21:13 84° SSE
Geosat 4.4 19:33:07 56° SW 19:33:07 56° SW 19:37:07 10° SW
Ariane Rocket 3.6 19:33:53 48° NNW 19:33:53 48° NNW 19:37:35 10° NNW
Cosmos 2227 4.3 19:33:09 10° NNW 19:38:36 69° WSW 19:38:36 69° WSW
SeaSat 1 3.0 19:40:26 54° W 19:40:26 54° W 19:44:57 10° NW
H-2A R/B 3.7 19:39:48 10° SSW 19:44:41 33° W 19:49:37 10° NNW
NOSS 3-4 (A) 4.3 19:44:47 10° NW 19:51:35 56° SW 19:53:07 48° SSW
NOSS 3-4 (C) 4.3 19:44:54 10° NW 19:51:41 56° SW 19:53:11 48° SSW
Cosmos 2278 4.3 19:49:37 10° SW 19:54:44 55° WNW 19:54:44 55° WNW
USA 215 3.2 19:57:31 78° NW 19:57:31 78° NW 20:03:37 10° WNW
ATLAS 5 CENTAUR R/B 3.9 19:56:34 10° NW 19:59:05 22° N 19:59:05 22° N
Lacrosse 5 3.3 19:56:27 10° WNW 19:59:23 35° NW 19:59:23 35° NW
Meteor 2-3 Rocket 4.5 19:56:26 10° NNW 20:01:55 49° W 20:01:55 49° W
COSMOS 2455 4.3 19:59:22 10° NNW 20:02:51 29° N 20:02:51 29° N
Cosmos 2278 Rocket 4.4 20:05:11 10° N 20:06:48 15° N 20:06:48 15° N
ATLAS 2AS CENTAUR R/B 3.3 20:06:23 10° NW 20:13:35 52° WSW 20:13:44 51° SW
SJ 16-02 4.1 20:10:03 10° NNW 20:10:42 14° NNW 20:10:42 14° NNW
Cosmos 1844 Rocket 4.3 20:10:45 10° NNW 20:13:19 27° NNW 20:13:19 27° NNW
Cosmos 2263 Rocket 3.8 20:22:45 10° NW 20:26:50 31° W 20:26:50 31° W
CZ-4C R/B 3.4 20:29:17 10° NW 20:34:50 56° WNW 20:34:50 56° WNW
